Overview Statistics Trail Chart Weather Telemetry Raw packets
 

This is the latest recevied weather packets stored in our database for station/object KO4ZGL-13. If no packets are shown the sender has not sent any weather packets the latest 10 day(s).

<< 104 105 106 107 108 109 110 >>
Time Temp. Humidity Pressure Rain* Wind** Luminosity Snow
1787857487 31.11° C 77% 1015 hPa 0 mm - 563 W/m² -
1787857185 30° C 79% 1014.8 hPa 0 mm - 591 W/m² -
1787856880 30° C 81% 1014.7 hPa 0 mm - 553 W/m² -
1787856580 30° C 83% 1014.8 hPa 0 mm - 554 W/m² -
1787856275 29.44° C 84% 1014.9 hPa 0 mm - 512 W/m² -
1787855971 29.44° C 83% 1015.2 hPa 0 mm - 655 W/m² -
1787855670 28.89° C 85% 1014.9 hPa 0 mm - 598 W/m² -
1787855366 28.89° C 87% 1015 hPa 0 mm - 291 W/m² -
1787855061 28.33° C 88% 1015.2 hPa 0 mm - 422 W/m² -
1787854756 27.78° C 88% 1015.3 hPa 0 mm - 158 W/m² -
1787854455 28.33° C 88% 1015.4 hPa 0 mm - 156 W/m² -
1787854151 28.33° C 87% 1015.6 hPa 0 mm - 154 W/m² -
1787853845 28.89° C 87% 1015.6 hPa 0 mm - 237 W/m² -
1787853543 28.33° C 88% 1015.6 hPa 0 mm - 257 W/m² -
1787853238 28.33° C 88% 1015.8 hPa 0 mm - 232 W/m² -
1787852938 28.33° C 87% 1015.9 hPa 0 mm - 176 W/m² -
1787852633 28.33° C 87% 1015.9 hPa 0 mm - 199 W/m² -
1787852332 28.89° C 87% 1015.9 hPa 0 mm - 225 W/m² -
1787852031 28.89° C 86% 1016 hPa 0 mm - 229 W/m² -
1787851730 28.89° C 85% 1016.2 hPa 0 mm - 189 W/m² -
1787851425 28.89° C 84% 1016.2 hPa 0 mm - 186 W/m² -
1787851121 29.44° C 84% 1016.4 hPa 0 mm - 200 W/m² -
1787850816 30° C 83% 1016.3 hPa 0 mm - 220 W/m² -
1787850512 30.56° C 83% 1016.1 hPa 0 mm - 257 W/m² -
1787850207 30.56° C 81% 1016.2 hPa 0 mm - 233 W/m² -

* Rain latest hour (hover to see other rain measurements)
** Current wind speed in m/s (hover to see current wind gust speed)